Hourly Weather Barra do Garcas

Today, 29 September, Tuesday

Time Temperature Precipitation Wind Pressure Humidity
00:00 +27°C° 0 mm 0 mps 726 mmHg 30%
01:00 +27°C° 0 mm 0 mps 726 mmHg 31%
02:00 +26°C° 0 mm 0 mps 726 mmHg 32%
03:00 +26°C° 0 mm 0 mps 725 mmHg 33%
04:00 +25°C° 0 mm 0 mps 726 mmHg 34%
05:00 +25°C° 0 mm 0 mps 726 mmHg 36%
06:00 +24°C° 0 mm 0 mps 726 mmHg 37%
07:00 +27°C° 0 mm 0 mps 727 mmHg 32%
08:00 +31°C° 0 mm 0 mps 728 mmHg 27%
09:00 +35°C° 0 mm 0 mps 729 mmHg 22%
10:00 +40°C° 0 mm 1 mps 728 mmHg 19%
11:00 +42°C° 0 mm 2 mps 728 mmHg 16%
12:00 +45°C° 0 mm 3 mps 728 mmHg 13%
13:00 +45°C° 0 mm 3 mps 727 mmHg 12%
14:00 +46°C° 0 mm 2 mps 726 mmHg 11%
15:00 +46°C° 0 mm 2 mps 726 mmHg 10%
16:00 +43°C° 0 mm 2 mps 725 mmHg 11%
17:00 +42°C° 0 mm 1 mps 725 mmHg 12%
18:00 +40°C° 0 mm 1 mps 724 mmHg 13%
19:00 +37°C° 0 mm 1 mps 725 mmHg 14%
20:00 +34°C° 0 mm 1 mps 726 mmHg 15%
21:00 +32°C° 0 mm 1 mps 726 mmHg 16%
22:00 +31°C° 0 mm 1 mps 726 mmHg 17%
23:00 +28°C° 0 mm 0 mps 726 mmHg 18%

Tomorrow, 30 September, Wednesday

Time Temperature Precipitation Wind Pressure Humidity
00:00 +28°C° 0 mm 0 mps 726 mmHg 20%
01:00 +27°C° 0 mm 0 mps 726 mmHg 20%
02:00 +26°C° 0 mm 0 mps 725 mmHg 21%
03:00 +26°C° 0 mm 0 mps 725 mmHg 22%
04:00 +27°C° 0 mm 1 mps 725 mmHg 23%
05:00 +27°C° 0 mm 1 mps 726 mmHg 23%
06:00 +26°C° 0 mm 1 mps 726 mmHg 24%
07:00 +30°C° 0 mm 1 mps 727 mmHg 21%
08:00 +33°C° 0 mm 1 mps 727 mmHg 17%
09:00 +37°C° 0 mm 1 mps 728 mmHg 14%
10:00 +40°C° 0 mm 3 mps 728 mmHg 13%
11:00 +43°C° 0 mm 4 mps 728 mmHg 11%
12:00 +46°C° 0 mm 6 mps 728 mmHg 10%
13:00 +46°C° 0 mm 5 mps 727 mmHg 9%
14:00 +47°C° 0 mm 4 mps 726 mmHg 8%
15:00 +47°C° 0 mm 4 mps 725 mmHg 8%
16:00 +45°C° 0 mm 3 mps 725 mmHg 9%
17:00 +42°C° 0 mm 2 mps 724 mmHg 10%
18:00 +40°C° 0 mm 2 mps 724 mmHg 12%
19:00 +37°C° 0 mm 1 mps 725 mmHg 13%
20:00 +35°C° 0 mm 1 mps 725 mmHg 15%
21:00 +30°C° 0 mm 0 mps 725 mmHg 16%
22:00 +32°C° 0 mm 1 mps 725 mmHg 17%
23:00 +31°C° 0 mm 1 mps 725 mmHg 18%

Day after tomorrow, 1 October, Thursday

Time Temperature Precipitation Wind Pressure Humidity
00:00 +30°C° 0 mm 2 mps 725 mmHg 19%
01:00 +30°C° 0 mm 1 mps 725 mmHg 20%
02:00 +29°C° 0 mm 1 mps 725 mmHg 21%
03:00 +28°C° 0 mm 1 mps 724 mmHg 23%
04:00 +28°C° 0 mm 1 mps 725 mmHg 23%
05:00 +27°C° 0 mm 1 mps 725 mmHg 24%
06:00 +27°C° 0 mm 1 mps 725 mmHg 25%
07:00 +30°C° 0 mm 1 mps 726 mmHg 23%
08:00 +34°C° 0 mm 2 mps 727 mmHg 21%
09:00 +38°C° 0 mm 3 mps 728 mmHg 18%
10:00 +39°C° 0 mm 3 mps 728 mmHg 17%
11:00 +42°C° 0 mm 4 mps 727 mmHg 16%
12:00 +45°C° 0 mm 5 mps 727 mmHg 16%
13:00 +44°C° 0 mm 4 mps 726 mmHg 15%
14:00 +43°C° 0 mm 4 mps 725 mmHg 15%
15:00 +43°C° 0 mm 3 mps 724 mmHg 15%
16:00 +41°C° 0 mm 2 mps 724 mmHg 16%
17:00 +40°C° 0 mm 2 mps 724 mmHg 18%
18:00 +37°C° 0 mm 1 mps 724 mmHg 19%
19:00 +36°C° 0 mm 1 mps 724 mmHg 21%
20:00 +34°C° 0 mm 1 mps 725 mmHg 23%
21:00 +32°C° 0 mm 1 mps 725 mmHg 25%
22:00 +30°C° 0 mm 0 mps 725 mmHg 26%
23:00 +30°C° 0 mm 0 mps 725 mmHg 26%

2 October, Friday

Time Temperature Precipitation Wind Pressure Humidity
00:00 +30°C° 0 mm 0 mps 725 mmHg 26%
01:00 +29°C° 0 mm 0 mps 725 mmHg 28%
02:00 +28°C° 0 mm 0 mps 724 mmHg 30%
03:00 +27°C° 0 mm 0 mps 724 mmHg 31%
04:00 +26°C° 0 mm 0 mps 725 mmHg 32%
05:00 +28°C° 0 mm 1 mps 725 mmHg 33%
06:00 +27°C° 0 mm 1 mps 725 mmHg 34%
07:00 +30°C° 0 mm 1 mps 726 mmHg 29%
08:00 +34°C° 0 mm 2 mps 727 mmHg 24%
09:00 +37°C° 0 mm 2 mps 728 mmHg 19%
10:00 +39°C° 0 mm 3 mps 728 mmHg 16%
11:00 +42°C° 0 mm 3 mps 727 mmHg 14%
12:00 +44°C° 0 mm 3 mps 727 mmHg 11%
13:00 +45°C° 0 mm 3 mps 726 mmHg 11%
14:00 +45°C° 0 mm 3 mps 725 mmHg 10%
15:00 +46°C° 0 mm 2 mps 725 mmHg 10%
16:00 +43°C° 0 mm 2 mps 724 mmHg 11%
17:00 +42°C° 0 mm 1 mps 724 mmHg 12%
18:00 +40°C° 0 mm 1 mps 724 mmHg 14%
19:00 +37°C° 0 mm 1 mps 724 mmHg 15%
20:00 +35°C° 0 mm 1 mps 725 mmHg 17%
21:00 +30°C° 0 mm 0 mps 725 mmHg 18%
22:00 +29°C° 0 mm 0 mps 725 mmHg 20%
23:00 +28°C° 0 mm 0 mps 725 mmHg 21%

3 October, Saturday

Time Temperature Precipitation Wind Pressure Humidity
00:00 +27°C° 0 mm 0 mps 725 mmHg 22%
01:00 +27°C° 0 mm 0 mps 725 mmHg 23%
02:00 +26°C° 0 mm 0 mps 725 mmHg 24%
03:00 +28°C° 0 mm 1 mps 725 mmHg 24%
04:00 +27°C° 0 mm 1 mps 725 mmHg 25%
05:00 +27°C° 0 mm 1 mps 725 mmHg 26%
06:00 +26°C° 0 mm 1 mps 726 mmHg 27%
07:00 +30°C° 0 mm 1 mps 727 mmHg 24%
08:00 +34°C° 0 mm 1 mps 727 mmHg 21%
09:00 +37°C° 0 mm 1 mps 728 mmHg 18%
10:00 +41°C° 0 mm 1 mps 728 mmHg 16%
11:00 +44°C° 0 mm 1 mps 728 mmHg 14%
12:00 +46°C° 0 mm 1 mps 727 mmHg 12%
13:00 +47°C° 0 mm 2 mps 726 mmHg 11%
14:00 +47°C° 0 mm 2 mps 725 mmHg 10%
15:00 +47°C° 0 mm 2 mps 724 mmHg 10%
16:00 +45°C° 0 mm 2 mps 724 mmHg 11%
17:00 +43°C° 0 mm 1 mps 724 mmHg 12%
18:00 +41°C° 0 mm 1 mps 724 mmHg 13%
19:00 +37°C° 0 mm 1 mps 724 mmHg 14%
20:00 +35°C° 0 mm 1 mps 724 mmHg 16%
21:00 +31°C° 0 mm 0 mps 725 mmHg 18%
22:00 +32°C° 0 mm 1 mps 725 mmHg 18%
23:00 +32°C° 0 mm 1 mps 725 mmHg 19%

4 October, Sunday

Time Temperature Precipitation Wind Pressure Humidity
00:00 +31°C° 0 mm 1 mps 725 mmHg 19%
01:00 +30°C° 0 mm 1 mps 725 mmHg 20%
02:00 +30°C° 0 mm 1 mps 724 mmHg 21%
03:00 +29°C° 0 mm 1 mps 724 mmHg 22%
04:00 +28°C° 0 mm 1 mps 724 mmHg 23%
05:00 +27°C° 0 mm 1 mps 725 mmHg 25%
06:00 +24°C° 0 mm 0 mps 725 mmHg 26%
07:00 +30°C° 0 mm 1 mps 726 mmHg 22%
08:00 +33°C° 0 mm 1 mps 727 mmHg 19%
09:00 +37°C° 0 mm 1 mps 727 mmHg 15%
10:00 +40°C° 0 mm 2 mps 727 mmHg 13%
11:00 +44°C° 0 mm 3 mps 727 mmHg 12%
12:00 +47°C° 0 mm 4 mps 727 mmHg 10%
13:00 +46°C° 0 mm 3 mps 726 mmHg 10%
14:00 +47°C° 0 mm 3 mps 725 mmHg 9%
15:00 +47°C° 0 mm 2 mps 725 mmHg 9%
16:00 +46°C° 0 mm 2 mps 724 mmHg 10%
17:00 +43°C° 0 mm 2 mps 724 mmHg 12%
18:00 +41°C° 0 mm 2 mps 724 mmHg 13%
19:00 +39°C° 0 mm 1 mps 725 mmHg 15%
20:00 +36°C° 0 mm 1 mps 725 mmHg 17%
21:00 +34°C° 0 mm 1 mps 725 mmHg 19%
22:00 +33°C° 0 mm 1 mps 725 mmHg 20%
23:00 +33°C° 0 mm 1 mps 725 mmHg 20%
Show more